OMD117 OMDB-OIIE

Flight info

Callsign OMD117
Flight time N/A
Altitude 39000
Route DAVMO M318 GABKO M317 RADEB M318 ASMUK W32 ROVAD G208 RADAL
Aircraft A20N/M-SDE2E3FGHIRWXY/LB1

Departure

Time 2026-04-24 15:26
Airport Dubai International Airport (OMDB)

Arrival

Time N/A
Airport Imam Khomeini International Airport (OIIE)
Time Latitude Longitude Altitude Speed Heading
2026-04-24 14:46 25.24659 55.36306 14 ft 0 kts 32°
2026-04-24 15:08 25.24650 55.36301 12 ft 3 kts 32°
2026-04-24 15:08 25.24634 55.36290 15 ft 3 kts 32°
2026-04-24 15:09 25.24618 55.36279 15 ft 3 kts 32°
2026-04-24 15:09 25.24609 55.36263 14 ft 2 kts 86°
2026-04-24 15:09 25.24610 55.36244 15 ft 3 kts 56°
2026-04-24 15:09 25.24598 55.36230 14 ft 2 kts 79°
2026-04-24 15:10 25.24598 55.36221 14 ft 0 kts 115°
2026-04-24 15:14 25.24597 55.36222 14 ft 1 kts 115°
2026-04-24 15:14 25.24591 55.36239 13 ft 7 kts 112°
2026-04-24 15:14 25.24554 55.36309 14 ft 15 kts 122°
2026-04-24 15:15 25.24492 55.36424 12 ft 16 kts 123°
2026-04-24 15:15 25.24454 55.36511 12 ft 0 kts 107°
2026-04-24 15:15 25.24447 55.36556 13 ft 11 kts 88°
2026-04-24 15:16 25.24489 55.36662 13 ft 20 kts 43°
2026-04-24 15:16 25.24566 55.36718 13 ft 11 kts 32°
2026-04-24 15:16 25.24629 55.36762 13 ft 10 kts 30°
2026-04-24 15:16 25.24690 55.36802 13 ft 10 kts 31°
2026-04-24 15:17 25.24740 55.36845 13 ft 8 kts 70°
2026-04-24 15:17 25.24724 55.36896 13 ft 6 kts 122°
2026-04-24 15:17 25.24703 55.36933 13 ft 5 kts 122°
2026-04-24 15:17 25.24685 55.36966 14 ft 5 kts 120°
2026-04-24 15:18 25.24670 55.36995 14 ft 4 kts 121°
2026-04-24 15:18 25.24656 55.37020 14 ft 4 kts 121°
2026-04-24 15:18 25.24645 55.37039 13 ft 3 kts 123°
2026-04-24 15:18 25.24619 55.37083 13 ft 11 kts 122°
2026-04-24 15:19 25.24567 55.37173 14 ft 17 kts 123°
2026-04-24 15:19 25.24525 55.37254 13 ft 2 kts 121°
2026-04-24 15:19 25.24505 55.37290 13 ft 9 kts 121°
2026-04-24 15:19 25.24459 55.37373 16 ft 16 kts 121°
2026-04-24 15:20 25.24390 55.37498 14 ft 22 kts 118°
2026-04-24 15:20 25.24334 55.37600 14 ft 2 kts 121°
2026-04-24 15:20 25.24313 55.37638 14 ft 10 kts 122°
2026-04-24 15:20 25.24265 55.37724 15 ft 16 kts 120°
2026-04-24 15:21 25.24326 55.37812 15 ft 16 kts 34°
2026-04-24 15:21 25.24372 55.37847 15 ft 0 kts 35°
2026-04-24 15:22 25.24403 55.37871 16 ft 14 kts 35°
2026-04-24 15:22 25.24488 55.37936 15 ft 22 kts 32°
2026-04-24 15:23 25.24688 55.38079 15 ft 16 kts 28°
2026-04-24 15:23 25.24805 55.38014 14 ft 11 kts 329°
2026-04-24 15:23 25.24840 55.37960 15 ft 0 kts 291°
2026-04-24 15:24 25.24840 55.37961 15 ft 0 kts 291°
2026-04-24 15:25 25.24866 55.37921 14 ft 10 kts 298°
2026-04-24 15:25 25.25158 55.37406 14 ft 95 kts 303°
2026-04-24 15:26 25.26572 55.34995 680 ft 124 kts 302°
2026-04-24 15:27 25.28165 55.32046 1337 ft 168 kts 303°
2026-04-24 15:27 25.31093 55.29488 2432 ft 219 kts 354°
2026-04-24 15:28 25.37616 55.29643 5023 ft 242 kts 359°
2026-04-24 15:29 25.40992 55.30234 6321 ft 260 kts 17°
2026-04-24 15:30 25.46380 55.32735 7792 ft 292 kts 20°
2026-04-24 15:31 25.54074 55.36341 10429 ft 312 kts 20°
2026-04-24 15:32 25.62347 55.41598 12035 ft 363 kts 33°
2026-04-24 15:33 25.70373 55.48811 14497 ft 379 kts 42°
2026-04-24 15:33 25.76161 55.54908 16423 ft 386 kts 41°
2026-04-24 15:34 25.80088 55.59035 17695 ft 391 kts 41°
2026-04-24 15:35 25.86155 55.65199 19163 ft 401 kts 34°
2026-04-24 15:35 25.90801 55.68736 20088 ft 408 kts 30°
2026-04-24 15:35 25.93225 55.70419 20552 ft 412 kts 29°
2026-04-24 15:36 25.95680 55.72102 21028 ft 417 kts 29°
2026-04-24 15:36 26.00660 55.75540 21948 ft 426 kts 29°
2026-04-24 15:36 26.03209 55.77248 22413 ft 428 kts 25°
2026-04-24 15:37 26.05944 55.78570 22866 ft 429 kts 15°
2026-04-24 15:37 26.08843 55.79303 23350 ft 427 kts
2026-04-24 15:37 26.11805 55.79458 23739 ft 427 kts 356°
2026-04-24 15:37 26.14780 55.79372 24157 ft 428 kts 353°
2026-04-24 15:38 26.17761 55.79218 24559 ft 431 kts 355°
2026-04-24 15:38 26.20746 55.79406 24941 ft 437 kts
2026-04-24 15:38 26.23790 55.79829 25339 ft 441 kts
2026-04-24 15:38 26.26830 55.80360 25728 ft 444 kts
2026-04-24 15:39 26.29889 55.80965 26087 ft 447 kts
2026-04-24 15:39 26.32953 55.81609 26459 ft 449 kts
2026-04-24 15:39 26.36033 55.82271 26826 ft 452 kts
2026-04-24 15:39 26.39127 55.82936 27183 ft 454 kts
2026-04-24 15:40 26.42239 55.83601 27561 ft 455 kts
2026-04-24 15:40 26.45351 55.84262 27968 ft 456 kts
2026-04-24 15:40 26.48482 55.84922 28307 ft 459 kts
2026-04-24 15:40 26.51587 55.85573 28624 ft 461 kts
2026-04-24 15:41 26.54755 55.86236 28959 ft 463 kts
2026-04-24 15:41 26.57944 55.86904 29282 ft 465 kts
2026-04-24 15:41 26.61128 55.87571 29602 ft 467 kts
2026-04-24 15:41 26.64340 55.88245 29918 ft 469 kts
2026-04-24 15:42 26.67554 55.88919 30178 ft 471 kts
2026-04-24 15:42 26.70778 55.89598 30548 ft 470 kts
2026-04-24 15:42 26.73987 55.90274 30947 ft 469 kts
2026-04-24 15:42 26.77188 55.90908 31335 ft 466 kts
2026-04-24 15:43 26.80390 55.91394 31723 ft 463 kts
2026-04-24 15:43 26.83592 55.91791 32098 ft 461 kts
2026-04-24 15:43 26.86741 55.92146 32489 ft 460 kts
2026-04-24 15:43 26.89917 55.92497 32860 ft 458 kts
2026-04-24 15:44 26.93097 55.92856 33222 ft 457 kts
2026-04-24 15:44 26.96258 55.93225 33560 ft 457 kts
2026-04-24 15:44 26.99421 55.93602 33873 ft 456 kts
2026-04-24 15:44 27.02574 55.93985 34162 ft 455 kts
2026-04-24 15:45 27.05724 55.94373 34474 ft 454 kts
2026-04-24 15:45 27.08851 55.94759 34789 ft 452 kts 360°
2026-04-24 15:45 27.11973 55.95146 35074 ft 450 kts 360°
2026-04-24 15:45 27.15090 55.95531 35363 ft 449 kts 359°
2026-04-24 15:46 27.18193 55.95914 35634 ft 448 kts 359°
2026-04-24 15:46 27.21299 55.96298 35895 ft 447 kts 359°
2026-04-24 15:46 27.24350 55.96674 36086 ft 448 kts 359°
2026-04-24 15:46 27.27446 55.97055 36328 ft 447 kts 359°
2026-04-24 15:47 27.30531 55.97436 36575 ft 446 kts 359°
2026-04-24 15:47 27.33620 55.97819 36829 ft 444 kts 359°
2026-04-24 15:47 27.36690 55.98199 37152 ft 442 kts 358°
2026-04-24 15:47 27.39752 55.98577 37347 ft 442 kts 358°
2026-04-24 15:48 27.42813 55.98956 37553 ft 442 kts 358°
2026-04-24 15:48 27.45865 55.99334 37796 ft 441 kts 358°
2026-04-24 15:48 27.48933 55.99713 37900 ft 443 kts 358°
2026-04-24 15:48 27.51996 56.00092 37919 ft 443 kts 358°